Hourly Data Report for October 26, 2015

All times are specified in Local Standard Time (LST). Add 1 hour to adjust for Daylight Saving Time where and when it is observed.

OTTAWA INTL A
ONTARIO

45°19'00.000" N
75°40'00.000" W
114.90 m
6106001
71628
YOW

Download Data

Hourly Data (October 2015)
Hourly Data Report for October 26, 2015
Temp Definition
°C
Dew Point Temp Definition
°C
Rel Hum Definition
%
Wind Dir Definition
10's deg

Wind Spd Definition
km/h
Visibility Definition
km
Stn Press Definition
kPa
Hmdx Definition


Wind Chill Definition


Weather Definition


TIME
00:00 Legend Double Dagger 2.7 -1.3 75 32 19 24.1 101.42     LegendNANA
01:00 Legend Double Dagger 1.0 -1.9 81 31 12 24.1 101.47     Clear
02:00 Legend Double Dagger 0.1 -2.3 84 30 11 24.1 101.53     LegendNANA
03:00 Legend Double Dagger -0.9 -3.3 84 31 10 24.1 101.57   -4 LegendNANA
04:00 Legend Double Dagger -1.4 -3.1 88 31 10 24.1 101.62   -5 Clear
05:00 Legend Double Dagger -1.8 -2.9 92 26 9 24.1 101.70   -5 LegendNANA
06:00 Legend Double Dagger -2.3 -3.4 92 29 12 24.1 101.76   -7 LegendNANA
07:00 Legend Double Dagger -1.6 -2.7 92 29 9 24.1 101.82   -5 Clear
08:00 Legend Double Dagger 0.6 -1.2 88 30 14 24.1 101.92     LegendNANA
09:00 Legend Double Dagger 2.4 -1.0 78 32 12 24.1 102.00     LegendNANA
10:00 Legend Double Dagger 3.2 -1.7 70 28 10 24.1 102.01     Clear
11:00 Legend Double Dagger 4.3 -3.0 59 30 16 24.1 102.01     LegendNANA
12:00 Legend Double Dagger 6.1 -2.8 53 29 17 24.1 101.95     LegendNANA
13:00 Legend Double Dagger 6.6 -2.8 51 26 23 24.1 101.90     Clear
14:00 Legend Double Dagger 7.0 -3.0 49 27 22 24.1 101.85     LegendNANA
15:00 Legend Double Dagger 7.1 -3.2 48 27 16 24.1 101.83     LegendNANA
16:00 Legend Double Dagger 6.5 -2.9 51 30 16 24.1 101.83     Clear
17:00 Legend Double Dagger 4.6 -2.7 59 29 12 24.1 101.85     LegendNANA
18:00 Legend Double Dagger 4.4 -2.9 59 33 4 24.1 101.89     LegendNANA
19:00 Legend Double Dagger 1.0 -3.1 74 18 4 24.1 101.91     Clear
20:00 Legend Double Dagger -0.4 -3.8 78 18 5 24.1 101.93   -2 LegendNANA
21:00 Legend Double Dagger -0.9 -3.3 84 16 5 24.1 101.94   -3 LegendNANA
22:00 Legend Double Dagger 0.2 -3.5 76 17 5 24.1 101.96     Mainly Clear
23:00 Legend Double Dagger 0.0 -2.5 83 18 12 24.1 101.96   -4 LegendNANA

Notes on Data Quality.

Legend

  • E = Estimated
  • M = Missing
  • NA = Not Available
  • ‡ = Partner data that is not subject to review by the National Climate Archives
Date modified: